User: anonymous   Login
Location: Waldport
(44.4270°N, 124.0680°W)
Time: 22:15:25
(UTC-07:00)
Language:

Cosmos 1023 Rocket - Orbit

View from above orbital plane
View from above orbital plane
View from above satellite
View from above satellite

Ground track
Ground track

The orbit data is extracted from the following two-line orbital elements,

1 10962U 78063B   16120.53080119  .00000055  00000-0  25313-4 0  9997
2 10962  74.0795 262.5098 0026210 271.8953  87.9201 14.41018777986280
Epoch (UTC): 29 April 2016 12:44:21
Eccentricity: 0.0026210
inclination: 74.0795°
perigee height: 736 km
apogee height: 774 km
right ascension of ascending node: 262.5098°
argument of perigee: 271.8953°
revolutions per day: 14.41018777
mean anomaly at epoch: 87.9201°
orbit number at epoch: 98628

The dashed part of the orbit path shows where the satellite is in the earth's shadow,  

DLR